FREGAT DEB, 45638

Orbit data source: Space-Track

FREGAT DEB, 45638 is space debris in LEO originally from a launch on Mon, 18 Jul 2011 UTC launched from the Tyuratam Missile And Space Complex (TTMTR). Debris objects in space refer to the collection of defunct objects orbiting the Earth. Examples of debris include non-operational satellites, rocket bodies, and fragments generated from explosions, collisions, or faulty payload assembly.

Loading next visibility...
Identifier
45638, 2011-037AE
Orbit
LEO
Country
Flag of CISCIS
Related business
Manufacturer
Lavochkin
Mission
Spacecraft
Bus & Motor
Unknown
Mass
Unknown
Launch date (UTC)
2011-07-18 (14 years ago)
Launch vehicle
Unknown
Launch site
Tyuratam Missile And Space Complex (TTMTR)
Object type
Payload
Rocket body
Debris
Shape & HBR
Unknown shape, 0.1 m
Radar Cross Section
Small (<0.1 m²)

Expand to show TLE details & history
Last TLE update: 20 hours ago

TLE from 20 hours ago
0 FREGAT DEB
1 45638U 11037AE  25340.57317596  .00055031  00000-0  36851-2 0  9994
2 45638  51.4004  79.1479 1204167  39.5462 328.7298 12.95978480240209
Epoch: 2025-12-06T13:45Z
TLE epoch observation values (Epoch: 2025-12-06T13:45:22.402Z)
Latitude
-0.00001°
Longitude
157.20558°
Altitude
525.645 km
Speed
7.966 km/s
True Right ascension
05h 16m 35s
True Declination
0° 00' 00"
Sunlit
Object was in full shadow at epoch
Visualization orbit readout
Latitude
Unknown
Longitude
Unknown
Altitude
Unknown
Speed
Unknown
Apparent Right ascension
Unknown
Apparent Declination
Unknown
Sunlit
N/A
Visualization observer readout
Local Sidereal Time
07:41:12
Azimuth
Unknown
Elevation
Unknown
Doppler factor
Unknown
Orbital elements
Apogee altitude
2,200.358 km
Perigee altitude
356.412 km
Semi-major axis
7,656.522 km
Eccentricity
0.12042
Inclination
51.4004°
RAAN
79.1479°
Arg. of periapsis
39.5462°
True anomaly
320.54534°
Mean anomaly
328.7298°
Eccentric anomaly
324.74763°
Mean motion
3.23963 °/min
Orbital period
111.12 mins
BSTAR
0.0036851
Loading maneuver chart data...
Computing Atmospheric mass density...
Loading historical data...
Loading historical data...
Loading historical data...
Loading historical data...
Loading historical data...
Loading historical data...
Loading historical data...

Documentation

Showing up to 5 results
|